Location: Canazei
(46.4667°N, 11.7667°E)
Time: 21:09:05
(UTC+00:00)

N. Korean satellite - Pass Details

Date: 02 October 2021
Orbit: 450 x 495 km, 97.3° (Epoch: 25 October)

Event Time Altitude Azimuth Distance (km) Brightness Sun altitude
Rises 03:22:52 0° 33° (NNE) 2,555 11.0 -19.6°
Reaches altitude 10° 03:26:03 10° 65° (ENE) 1,678 10.5 -19.0°
Maximum altitude 03:27:35 12° 90° (E) 1,541 10.2 -18.8°
Drops below altitude 10° 03:29:08 10° 115° (ESE) 1,680 10.0 -18.5°
Sets 03:32:19 0° 147° (SSE) 2,562 10.5 -18.0°
